Lawton, OK

10:36 AM CST on February 09, 2016 (GMT -0600)
Post Army Air Field

Weather History for KFSI - January, 2014

Change the Weather History Date:

Saturday, January 11, 2014

  Actual Average Record
Temperature  
Mean Temperature 49 °F -  
Max Temperature 65 °F 47 °F 75 °F (1990)
Min Temperature 33 °F 24 °F 0 °F (1962)
Degree Days  
Heating Degree Days 16    
Moisture  
Dew Point 21 °F    
Average Humidity 36    
Maximum Humidity 60    
Minimum Humidity 18    
Precipitation  
Precipitation 0.00 in - - ()
Sea Level Pressure  
Sea Level Pressure 29.99 in    
Wind  
Wind Speed 6 mph (WNW)    
Max Wind Speed 17 mph    
Max Gust Speed 23 mph    
Visibility 10 miles    
Events      
Averages and records for this station are not official NWS values.
T = Trace of Precipitation, MM = Missing Value Source: NWS Daily Summary

Daily Weather History Graph

Daily Weather History Graph

Search for Another Location

Airport or City:

Trip Planner

Search our weather history database for the weather conditions in past years. The results will help you decide how hot, cold, wet, or windy it might be!

Date:

Astronomy

Jan. 11, 2014 Rise Set
Actual Time 7:41 AM CST 5:42 PM CST
Civil Twilight 7:13 AM CST 6:09 PM CST
Nautical Twilight 6:42 AM CST 6:41 PM CST
Astronomical Twilight 6:11 AM CST 7:11 PM CST
Moon 2:25 PM CST (1/11) 3:49 AM CST (1/11)
Length of Visible Light 10h 56m
Length of Day
10h 01m
Waxing Gibbous, 83% of the Moon is Illuminated
Jan 11
Waxing Gibbous
Jan 15
Full
Jan 23
Last Quarter
Jan 30
New
Feb 6
First Quarter

Hourly Weather History & Observations

Time (CST) Temp. Windchill Dew Point Humidity Pressure Visibility Wind Dir Wind Speed Gust Speed Precip Events Conditions
12:58 AM 37.4 °F 33.8 °F 24.8 °F 60% 29.84 in 10.0 mi North 4.6 mph - N/A   Clear
1:58 AM 38.3 °F 35.9 °F 21.9 °F 52% 29.87 in 10.0 mi NW 3.5 mph - N/A   Clear
2:58 AM 40.1 °F 36.1 °F 22.8 °F 50% 29.90 in 10.0 mi WNW 5.8 mph - N/A   Clear
3:58 AM 37.2 °F - 20.5 °F 51% 29.93 in 10.0 mi NNW 2.3 mph - N/A   Clear
4:58 AM 33.6 °F - 19.9 °F 57% 29.95 in 10.0 mi Calm Calm - N/A   Clear
5:58 AM 43.2 °F 38.4 °F 20.5 °F 40% 29.96 in 10.0 mi NNW 8.1 mph - N/A   Clear
6:58 AM 43.5 °F - 20.3 °F 40% 30.00 in 10.0 mi Variable 1.2 mph - N/A   Clear
7:58 AM 35.4 °F - 20.1 °F 54% 30.02 in 10.0 mi SE 2.3 mph - N/A   Clear
8:58 AM 46.6 °F - 19.9 °F 35% 30.04 in 10.0 mi NW 6.9 mph - N/A   Clear
9:58 AM 56.8 °F - 21.2 °F 25% 30.06 in 10.0 mi WNW 8.1 mph - N/A   Clear
10:58 AM 60.3 °F - 20.5 °F 22% 30.08 in 10.0 mi WNW 16.1 mph 23.0 mph N/A   Clear
11:58 AM 60.6 °F - 21.7 °F 22% 30.07 in 10.0 mi NW 17.3 mph - N/A   Clear
12:58 PM 63.0 °F - 21.9 °F 21% 30.05 in 10.0 mi NNW 11.5 mph 20.7 mph N/A   Clear
1:58 PM 64.6 °F - 21.7 °F 19% 30.03 in 10.0 mi NNW 12.7 mph - N/A   Clear
2:58 PM 65.3 °F - 19.8 °F 18% 30.02 in 10.0 mi WNW 10.4 mph - N/A   Clear
3:58 PM 64.9 °F - 20.3 °F 18% 30.02 in 10.0 mi NW 5.8 mph - N/A   Clear
4:58 PM 63.9 °F - 21.2 °F 20% 30.01 in 10.0 mi West 5.8 mph - N/A   Clear
5:58 PM 57.6 °F - 21.0 °F 24% 30.01 in 10.0 mi SW 4.6 mph - N/A   Clear
6:58 PM 53.4 °F - 21.9 °F 29% 30.01 in 10.0 mi SSW 5.8 mph - N/A   Clear
7:58 PM 49.3 °F - 22.5 °F 35% 30.02 in 10.0 mi SSW 4.6 mph - N/A   Clear
8:58 PM 44.8 °F 42.4 °F 22.8 °F 42% 30.02 in 10.0 mi South 4.6 mph - N/A   Clear
9:58 PM 44.4 °F 41.2 °F 22.8 °F 43% 29.98 in 10.0 mi South 5.8 mph - N/A   Clear
10:58 PM 43.5 °F 37.9 °F 22.6 °F 44% 29.97 in 10.0 mi SSW 10.4 mph - N/A   Clear
11:58 PM 43.5 °F 40.1 °F 22.3 °F 43% 29.95 in 10.0 mi South 5.8 mph - N/A   Clear